EW1458 Weather Reports


Display with metric or nautical units.
time (UTC)temp
F
wind
direction
speed
MPH
gust
MPH
rain 1hr
in
rain 24hr
in
rain mn
in
humidity
%
barometer
mb
20260508185209 55 303 10.0 18.0 0.00 0.00 0.00 52 1003.3
20260508184705 55 289 9.0 17.0 0.00 0.00 0.00 56 1003.1
20260508184203 55 261 7.0 17.0 0.00 0.00 0.00 57 1003.2
20260508183700 55 293 14.0 20.0 0.00 0.00 0.00 55 1003.2
20260508183159 55 290 10.0 20.0 0.00 0.00 0.00 52 1003.0
20260508182659 55 298 4.0 15.0 0.00 0.00 0.00 53 1003.2
20260508182157 55 276 6.0 19.0 0.00 0.00 0.00 57 1003.0
20260508181657 55 264 10.0 19.0 0.00 0.00 0.00 55 1002.9
20260508181156 55 269 9.0 15.0 0.00 0.00 0.00 53 1003.1
20260508180652 55 305 10.0 14.0 0.00 0.00 0.00 52 1003.0
20260508180150 54 296 13.0 17.0 0.00 0.00 0.00 54 1003.1
20260508175647 55 255 11.0 18.0 0.00 0.00 0.00 54 1003.0
20260508174646 54 263 8.0 15.0 0.00 0.00 0.00 56 1002.9
20260508174145 54 254 9.0 15.0 0.00 0.00 0.00 54 1002.9
20260508173643 54 222 14.0 15.0 0.00 0.00 0.00 51 1002.8
20260508173143 54 296 10.0 17.0 0.00 0.00 0.00 52 1002.8
20260508172642 54 306 16.0 19.0 0.00 0.00 0.00 52 1002.8
20260508172141 54 268 13.0 19.0 0.00 0.00 0.00 52 1002.7
20260508170640 55 283 10.0 17.0 0.00 0.00 0.00 49 1002.8
20260508170141 55 295 5.0 13.0 0.00 0.00 0.00 53 1002.6
20260508165640 55 282 9.0 21.0 0.00 0.00 0.00 50 1002.8
20260508165138 54 225 8.0 21.0 0.00 0.00 0.00 51 1002.7
20260508164640 53 243 3.0 16.0 0.00 0.00 0.00 52 1002.7
20260508164139 53 265 8.0 16.0 0.00 0.00 0.00 51 1002.8
20260508163639 53 305 12.0 20.0 0.00 0.00 0.00 52 1003.0
20260508163138 53 299 10.0 20.0 0.00 0.00 0.00 53 1003.3
20260508162635 53 296 9.0 20.0 0.00 0.00 0.00 52 1003.0
20260508161635 54 303 11.0 18.0 0.00 0.00 0.00 51 1003.0
20260508160636 53 279 8.0 21.0 0.00 0.00 0.00 56 1003.1
20260508160135 53 284 9.0 20.0 0.00 0.00 0.00 52 1003.0
20260508155634 54 282 13.0 21.0 0.00 0.00 0.00 54 1002.9
20260508155131 55 294 11.0 23.0 0.00 0.00 0.00 52 1002.9
20260508154629 54 296 11.0 23.0 0.00 0.00 0.00 52 1002.9
20260508154128 54 309 20.0 23.0 0.00 0.01 0.00 48 1002.6
20260508153627 54 258 8.0 17.0 0.00 0.02 0.00 50 1003.1
20260508153126 54 292 7.0 18.0 0.00 0.02 0.00 53 1002.9
20260508151624 55 270 6.0 16.0 0.00 0.03 0.00 50 1003.0
20260508151117 55 294 6.0 18.0 0.00 0.03 0.00 50 1002.9
20260508150615 54 283 9.0 18.0 0.00 0.03 0.00 49 1003.0
20260508150114 54 302 9.0 13.0 0.00 0.05 0.00 50 1003.1
20260508145608 53 261 9.0 15.0 0.00 0.06 0.00 52 1003.1
20260508145105 53 254 5.0 15.0 0.00 0.08 0.00 53 1003.0
20260508144605 54 293 6.0 12.0 0.00 0.08 0.00 55 1003.0
20260508143105 53 235 10.0 18.0 0.00 0.12 0.00 55 1003.1
20260508142603 53 240 8.0 18.0 0.00 0.12 0.00 53 1003.1
20260508142058 53 301 13.0 14.0 0.00 0.13 0.00 55 1003.2
20260508141555 54 247 4.0 11.0 0.00 0.14 0.00 53 1003.0
20260508141054 54 296 10.0 14.0 0.00 0.14 0.00 55 1003.0
20260508135551 53 279 6.0 15.0 0.00 0.20 0.00 56 1003.2
20260508135048 53 219 7.0 12.0 0.00 0.21 0.00 56 1002.9
20260508134547 53 212 6.0 12.0 0.00 0.24 0.00 53 1003.1
20260508133546 53 306 10.0 14.0 0.00 0.28 0.00 55 1003.2
20260508133042 53 301 6.0 11.0 0.00 0.30 0.00 54 1003.0
20260508132542 52 254 4.0 12.0 0.00 0.31 0.00 59 1003.1
20260508132041 53 302 9.0 12.0 0.00 0.34 0.00 60 1003.1
20260508131541 52 250 5.0 11.0 0.00 0.34 0.00 54 1003.0
20260508131039 52 279 5.0 13.0 0.00 0.36 0.00 57 1003.0
20260508130538 51 253 7.0 14.0 0.00 0.37 0.00 57 1002.9
20260508130036 51 301 10.0 14.0 0.00 0.38 0.00 60 1003.0
20260508125534 51 263 4.0 9.0 0.00 0.41 0.00 60 1003.0
20260508125033 51 274 6.0 9.0 0.00 0.44 0.00 61 1002.9
20260508124032 51 276 4.0 9.0 0.00 0.47 0.00 61 1003.0
20260508123527 51 302 6.0 12.0 0.00 0.48 0.00 61 1002.8
20260508123027 51 260 5.0 12.0 0.00 0.48 0.00 61 1003.0
20260508122527 50 302 7.0 10.0 0.00 0.48 0.00 60 1003.1
20260508122028 50 299 6.0 10.0 0.00 0.48 0.00 62 1002.8
20260508121527 50 279 4.0 10.0 0.00 0.48 0.00 63 1003.0
20260508121027 50 308 4.0 9.0 0.00 0.48 0.00 63 1002.8
20260508115025 50 276 6.0 10.0 0.00 0.48 0.00 66 1003.0
20260508114525 50 285 4.0 10.0 0.00 0.48 0.00 65 1002.8
20260508114024 50 307 4.0 13.0 0.00 0.48 0.00 66 1003.0
20260508113019 49 309 3.0 12.0 0.00 0.48 0.00 66 1002.9
20260508112519 49 305 6.0 12.0 0.00 0.48 0.00 63 1002.7
20260508112017 49 303 5.0 13.0 0.00 0.49 0.00 64 1003.0
20260508111012 49 297 2.0 10.0 0.00 0.49 0.00 65 1003.0
20260508110507 49 297 3.0 8.0 0.00 0.49 0.00 67 1002.9
20260508110009 49 243 4.0 6.0 0.00 0.49 0.00 66 1003.0
20260508105507 49 26 1.0 6.0 0.00 0.49 0.00 68 1002.9
20260508105006 48 224 6.0 8.0 0.00 0.49 0.00 70 1002.9
20260508104504 48 233 3.0 8.0 0.00 0.49 0.00 71 1002.7
20260508104006 47 229 1.0 5.0 0.00 0.49 0.00 74 1002.6
20260508102959 46 272 4.0 7.0 0.00 0.49 0.00 80 1002.5
20260508102500 46 234 2.0 9.0 0.00 0.49 0.00 79 1002.6
20260508102001 46 262 3.0 9.0 0.00 0.49 0.00 79 1002.6
20260508101457 45 210 2.0 7.0 0.00 0.49 0.00 79 1002.4
20260508100959 45 214 3.0 6.0 0.00 0.49 0.00 82 1002.4
20260508100457 44 247 2.0 6.0 0.00 0.49 0.00 85 1002.4
20260508095458 42 192 0.0 3.0 0.00 0.49 0.00 92 1002.2
20260508094958 41 339 0.0 2.0 0.00 0.49 0.00 92 1002.3
20260508094457 41 91 0.0 3.0 0.00 0.49 0.00 93 1002.1
20260508093956 41 63 0.0 3.0 0.00 0.49 0.00 93 1002.0
20260508093457 41 304 1.0 4.0 0.00 0.49 0.00 94 1002.2
20260508092956 41 304 2.0 4.0 0.00 0.49 0.00 95 1002.0
20260508092458 41 269 2.0 4.0 0.00 0.49 0.00 96 1002.0
20260508091956 40 208 0.0 3.0 0.00 0.49 0.00 96 1002.1
20260508091454 40 161 0.0 3.0 0.00 0.49 0.00 96 1001.9
20260508090953 40 154 2.0 3.0 0.00 0.49 0.00 96 1001.9
20260508090453 40 133 2.0 6.0 0.00 0.49 0.00 96 1002.1
20260508085953 40 305 0.0 6.0 0.00 0.49 0.00 96 1002.1
20260508084952 40 179 1.0 3.0 0.00 0.49 0.00 95 1002.2
20260508084452 41 106 2.0 3.0 0.00 0.49 0.00 95 1002.2
20260508083947 40 222 1.0 2.0 0.00 0.49 0.00 95 1002.1
20260508083449 41 118 0.0 2.0 0.00 0.49 0.00 94 1002.0
20260508082947 41 85 0.0 2.0 0.00 0.49 0.00 93 1002.1
20260508082447 41 97 1.0 3.0 0.00 0.50 0.00 94 1002.2
20260508081946 41 230 2.0 3.0 0.00 0.50 0.00 94 1002.0
20260508081446 42 307 2.0 3.0 0.00 0.50 0.00 94 1002.2
20260508080947 42 352 0.0 3.0 0.00 0.50 0.00 94 1002.0
20260508080445 42 237 0.0 3.0 0.00 0.50 0.00 93 1002.3
20260508075944 42 110 0.0 1.0 0.00 0.50 0.00 93 1002.2
20260508075442 42 77 0.0 2.0 0.00 0.50 0.00 93 1002.3
20260508074940 42 223 0.0 2.0 0.00 0.50 0.00 93 1002.0
20260508074441 42 55 0.0 1.0 0.00 0.50 0.00 93 1002.1
20260508073939 42 125 0.0 1.0 0.00 0.50 0.00 93 1002.3
20260508072939 42 268 0.0 2.0 0.00 0.50 0.00 93 1002.1
20260508072438 42 184 0.0 2.0 0.00 0.50 0.00 93 1002.4
20260508070933 43 57 1.0 2.0 0.00 0.51 0.00 91 1002.1
20260508070432 43 117 0.0 2.0 0.00 0.51 0.00 91 1002.2
20260508065433 43 160 0.0 2.0 0.00 0.51 0.00 90 1002.3
20260508064932 44 111 2.0 3.0 0.00 0.51 0.00 89 1002.4
20260508063939 45 279 2.0 3.0 0.00 0.51 0.00 87 1002.5
20260508062927 45 117 0.0 2.0 0.00 0.51 0.00 86 1002.4
20260508062427 45 228 0.0 3.0 0.00 0.51 0.00 86 1002.2
20260508061426 46 269 2.0 5.0 0.00 0.51 0.00 85 1002.0
20260508060926 46 243 3.0 5.0 0.00 0.51 0.00 85 1002.4
20260508060426 46 242 2.0 5.0 0.00 0.51 0.00 86 1002.6
20260508055923 44 242 1.0 4.0 0.00 0.51 0.00 90 1002.6
20260508055424 44 194 1.0 3.0 0.00 0.51 0.00 91 1002.4
20260508054924 44 97 2.0 3.0 0.00 0.51 0.00 91 1002.4
20260508054425 44 208 0.0 3.0 0.00 0.51 0.00 91 1002.4
20260508053925 44 190 1.0 3.0 0.00 0.51 0.00 90 1002.3
20260508053422 44 108 1.0 3.0 0.00 0.51 0.00 90 1002.3
20260508052925 45 101 2.0 3.0 0.00 0.51 0.00 89 1002.2
20260508052423 45 182 0.0 4.0 0.00 0.51 0.00 88 1002.4
20260508051924 45 257 2.0 5.0 0.00 0.51 0.00 88 1002.4
20260508051423 45 300 3.0 5.0 0.00 0.51 0.00 88 1002.6
20260508050921 45 265 3.0 4.0 0.00 0.52 0.00 88 1002.7
20260508050421 45 257 2.0 7.0 0.00 0.52 0.00 88 1002.6
20260508045421 45 234 3.0 5.0 0.00 0.54 0.00 88 1002.6
20260508044919 45 263 3.0 6.0 0.00 0.54 0.00 89 1002.6
20260508044419 45 300 4.0 6.0 0.00 0.54 0.00 89 1002.5
20260508043418 45 272 2.0 6.0 0.00 0.54 0.00 90 1002.7
20260508042917 44 248 2.0 6.0 0.00 0.54 0.00 91 1002.7
20260508042417 44 309 2.0 4.0 0.00 0.54 0.00 94 1002.9
20260508041930 43 189 0.0 4.0 0.00 0.56 0.00 94 1002.8
20260508041414 43 170 2.0 2.0 0.00 0.56 0.00 94 1002.6
20260508040912 43 161 0.0 2.0 0.00 0.57 0.00 94 1002.7
20260508040411 43 148 0.0 2.0 0.00 0.59 0.00 94 1002.6
20260508035910 43 222 2.0 3.0 0.00 0.59 0.00 94 1002.6
20260508035410 43 284 0.0 3.0 0.00 0.59 0.00 94 1002.8
20260508034408 43 299 0.0 1.0 0.00 0.59 0.00 94 1002.6
20260508033905 43 12 0.0 2.0 0.00 0.59 0.00 94 1002.7
20260508033353 43 120 0.0 2.0 0.00 0.59 0.00 94 1002.8
20260508032847 43 123 1.0 2.0 0.00 0.59 0.00 94 1002.5
20260508032345 43 51 0.0 2.0 0.00 0.59 0.00 93 1002.3
20260508031845 43 121 1.0 3.0 0.00 0.59 0.00 93 1002.0
20260508031345 44 184 1.0 3.0 0.00 0.59 0.00 94 1002.3
20260508030344 43 302 2.0 4.0 0.00 0.59 0.00 93 1002.5
20260508025340 44 330 0.0 2.0 0.00 0.59 0.59 92 1002.4
20260508024839 44 205 0.0 2.0 0.00 0.59 0.59 91 1002.6
20260508024339 44 187 0.0 1.0 0.00 0.59 0.59 90 1002.5
20260508023839 45 117 1.0 2.0 0.00 0.59 0.59 89 1002.5
20260508023339 45 234 1.0 2.0 0.00 0.59 0.59 90 1002.6
20260508022838 45 311 0.0 2.0 0.00 0.59 0.59 91 1002.6
20260508022335 45 257 0.0 2.0 0.00 0.59 0.59 92 1002.8
20260508021834 45 9 0.0 2.0 0.00 0.59 0.59 92 1002.6
20260508021336 45 6 1.0 2.0 0.00 0.59 0.59 92 1002.6
20260508020830 45 49 1.0 2.0 0.00 0.59 0.59 91 1002.7
20260508020329 46 58 2.0 2.0 0.00 0.59 0.59 89 1002.6
20260508015825 46 104 0.0 1.0 0.00 0.59 0.59 87 1002.7
20260508015326 46 22 0.0 1.0 0.00 0.59 0.59 88 1002.6
20260508013323 47 284 0.0 2.0 0.00 0.59 0.59 87 1002.5
20260508012821 47 255 0.0 2.0 0.00 0.59 0.59 87 1002.7
20260508012320 47 304 0.0 2.0 0.00 0.59 0.59 87 1002.8
20260508011817 47 299 0.0 2.0 0.00 0.59 0.59 87 1002.7
20260508011317 47 292 0.0 2.0 0.00 0.59 0.59 86 1002.4
20260508010816 48 122 0.0 1.0 0.00 0.59 0.59 85 1002.6
20260508010315 48 72 1.0 2.0 0.00 0.59 0.59 85 1002.4
20260508005815 48 272 0.0 3.0 0.00 0.59 0.59 84 1002.6
20260508005314 48 177 0.0 3.0 0.00 0.59 0.59 84 1002.4
20260508004306 49 276 2.0 4.0 0.00 0.59 0.59 83 1002.3
20260508003805 49 253 1.0 5.0 0.00 0.59 0.59 83 1002.4
20260508003305 49 293 1.0 5.0 0.00 0.59 0.59 82 1002.2
20260508002306 49 239 3.0 6.0 0.00 0.59 0.59 82 1002.3
20260508001803 50 307 1.0 6.0 0.00 0.59 0.59 81 1002.4
20260508001301 50 248 4.0 8.0 0.00 0.59 0.59 81 1002.4
20260508000801 50 232 3.0 8.0 0.00 0.59 0.59 81 1002.2
20260508000258 50 230 3.0 11.0 0.00 0.59 0.59 81 1002.0
20260507235757 50 270 5.0 11.0 0.00 0.59 0.59 81 1002.1
20260507235257 51 230 5.0 9.0 0.00 0.59 0.59 80 1002.0
20260507234757 51 249 4.0 10.0 0.00 0.59 0.59 80 1002.2
20260507234255 51 235 5.0 10.0 0.00 0.59 0.59 80 1001.9
20260507233254 51 246 6.0 12.0 0.00 0.59 0.59 79 1002.2
20260507232753 51 247 7.0 9.0 0.00 0.59 0.59 79 1001.9
20260507231753 52 231 6.0 13.0 0.00 0.59 0.59 77 1001.8
20260507230249 53 282 4.0 12.0 0.00 0.59 0.59 75 1001.2
20260507225747 54 225 7.0 11.0 0.00 0.59 0.59 73 1001.3
20260507225245 54 238 4.0 11.0 0.00 0.59 0.59 72 1001.5
20260507224746 55 307 4.0 11.0 0.00 0.59 0.59 72 1001.3
20260507224244 55 241 4.0 12.0 0.00 0.59 0.59 70 1001.3
20260507223743 56 221 8.0 12.0 0.00 0.59 0.59 67 1001.5
20260507223256 57 253 6.0 11.0 0.00 0.59 0.59 64 1001.6
20260507222754 57 203 5.0 11.0 0.00 0.59 0.59 62 1001.3
20260507222252 57 283 5.0 9.0 0.00 0.59 0.59 58 1001.2
20260507221738 58 282 3.0 8.0 0.00 0.59 0.59 58 1001.4
20260507221234 58 295 5.0 10.0 0.00 0.59 0.59 57 1001.3
20260507220735 58 311 4.0 10.0 0.00 0.59 0.59 56 1001.2
20260507220230 58 291 7.0 12.0 0.00 0.59 0.59 56 1001.3
20260507215732 58 290 5.0 13.0 0.00 0.59 0.59 57 1001.5
20260507215230 58 311 6.0 13.0 0.00 0.59 0.59 57 1001.2
20260507214731 59 269 6.0 13.0 0.00 0.59 0.59 59 1001.4
20260507214230 58 259 5.0 13.0 0.00 0.59 0.59 59 1001.3
20260507213231 59 297 5.0 10.0 0.00 0.59 0.59 58 1001.3
20260507212229 59 266 5.0 12.0 0.00 0.59 0.59 59 1001.3
20260507211729 59 274 3.0 12.0 0.00 0.59 0.59 61 1001.2
20260507210727 59 217 6.0 12.0 0.00 0.59 0.59 57 1001.3
20260507210227 59 253 5.0 13.0 0.00 0.59 0.59 62 1001.5
20260507205727 59 262 6.0 13.0 0.00 0.59 0.59 59 1001.3
20260507205227 58 279 4.0 13.0 0.00 0.59 0.59 63 1000.9
20260507204728 58 241 4.0 13.0 0.00 0.59 0.59 62 1001.0
20260507204227 58 203 4.0 13.0 0.00 0.59 0.59 63 1001.1
20260507203727 59 243 6.0 11.0 0.00 0.59 0.59 60 1001.0
20260507203224 59 283 3.0 12.0 0.00 0.59 0.59 63 1001.1
20260507202723 58 233 3.0 12.0 0.00 0.59 0.59 63 1000.8
20260507201733 59 238 2.0 13.0 0.00 0.59 0.59 60 1001.1
20260507201221 58 272 4.0 14.0 0.00 0.59 0.59 67 1001.1
20260507200718 58 256 9.0 14.0 0.00 0.59 0.59 65 1001.0
20260507200218 58 260 9.0 13.0 0.00 0.59 0.59 69 1000.9
20260507195718 59 240 4.0 12.0 0.00 0.59 0.59 67 1001.1
20260507194709 58 252 12.0 15.0 0.00 0.59 0.59 68 1001.2
20260507194205 58 187 7.0 13.0 0.00 0.59 0.59 72 1001.2
20260507193704 57 205 3.0 11.0 0.00 0.59 0.59 73 1001.0
20260507193205 58 237 7.0 11.0 0.00 0.59 0.59 71 1001.2
20260507192703 57 262 7.0 15.0 0.00 0.59 0.59 74 1001.0
20260507192201 57 253 9.0 15.0 0.00 0.59 0.59 72 1001.1
20260507191658 57 251 6.0 15.0 0.00 0.59 0.59 76 1001.2
20260507191155 56 239 7.0 13.0 0.00 0.59 0.59 79 1001.1
20260507190153 56 243 5.0 12.0 0.00 0.59 0.59 78 1001.1
20260507185653 56 232 4.0 12.0 0.00 0.59 0.59 82 1001.3